Easton, MD

9:26 AM EST on November 13, 2019 (GMT -0500)
Easton / Newnam

Weather History for KESN - September, 2019

Change the Weather History Date:

Saturday, September 14, 2019

  Actual Average Record
Temperature  
Mean Temperature 72 °F -  
Max Temperature 84 °F 81 °F 91 °F (1952)
Min Temperature 60 °F 59 °F 44 °F (1975)
Cooling Degree Days 7    
Growing Degree Days 22 (Base 50)    
Moisture  
Dew Point 62 °F    
Average Humidity 79    
Maximum Humidity 93    
Minimum Humidity 51    
Precipitation  
Precipitation 0.00 in - - ()
Sea Level Pressure  
Sea Level Pressure 30.31 in    
Wind  
Wind Speed 3 mph (SSE)    
Max Wind Speed 12 mph    
Max Gust Speed 20 mph    
Visibility 10 miles    
Events      
Averages and records for this station are not official NWS values.
T = Trace of Precipitation, MM = Missing Value Source: NWS Daily Summary

Daily Weather History Graph

Daily Weather History Graph

Search for Another Location

Airport or City:

Astronomy

Sep. 14, 2019 Rise Set
Actual Time 6:44 AM EDT 7:14 PM EDT
Civil Twilight 6:17 AM EDT 7:41 PM EDT
Nautical Twilight 5:46 AM EDT 8:12 PM EDT
Astronomical Twilight 5:14 AM EDT 8:44 PM EDT
Moon 7:54 PM EDT (9/14) 6:56 AM EDT (9/14)
Length of Visible Light 13h 23m
Length of Day
12h 29m
Full, 100% of the Moon is Illuminated
Sep 14
Full
Sep 21
Last Quarter
Sep 28
New
Oct 5
First Quarter
Oct 13
Full

Hourly Weather History & Observations

Time (EDT) Temp. Heat Index Dew Point Humidity Pressure Visibility Wind Dir Wind Speed Gust Speed Precip Events Conditions
12:00 AM 63.5 °F - 58.6 °F 84% 30.40 in 10.0 mi Calm Calm - N/A   Clear
12:20 AM 62.2 °F - 57.9 °F 86% 30.40 in 10.0 mi Calm Calm - N/A   Clear
12:40 AM 62.8 °F - 58.3 °F 85% 30.39 in 10.0 mi Calm Calm - N/A   Clear
1:00 AM 62.4 °F - 58.6 °F 87% 30.40 in 10.0 mi Calm Calm - N/A   Clear
1:20 AM 61.9 °F - 58.5 °F 89% 30.39 in 10.0 mi Calm Calm - N/A   Clear
1:40 AM 61.2 °F - 58.1 °F 90% 30.39 in 10.0 mi NE 4.6 mph - N/A   Clear
2:00 AM 62.4 °F - 58.6 °F 87% 30.38 in 10.0 mi NE 4.6 mph - N/A   Clear
2:20 AM 62.2 °F - 58.6 °F 88% 30.37 in 10.0 mi NE 3.5 mph - N/A   Clear
2:40 AM 61.5 °F - 58.5 °F 90% 30.36 in 10.0 mi Calm Calm - N/A   Clear
3:20 AM 61.2 °F - 58.3 °F 90% 30.34 in 10.0 mi Calm Calm - N/A   Clear
3:40 AM 61.0 °F - 58.3 °F 91% 30.34 in 10.0 mi Calm Calm - N/A   Scattered Clouds
4:00 AM 61.0 °F - 58.3 °F 91% 30.34 in 10.0 mi Calm Calm - N/A   Scattered Clouds
4:20 AM 61.2 °F - 58.6 °F 91% 30.34 in 10.0 mi Calm Calm - N/A   Mostly Cloudy
4:40 AM 61.2 °F - 58.3 °F 90% 30.34 in 10.0 mi Calm Calm - N/A   Scattered Clouds
5:00 AM 60.8 °F - 58.3 °F 91% 30.34 in 10.0 mi NNE 3.5 mph - N/A   Scattered Clouds
5:20 AM 61.2 °F - 59.0 °F 93% 30.34 in 10.0 mi NE 3.5 mph - N/A   Mostly Cloudy
5:40 AM 61.0 °F - 58.8 °F 93% 30.34 in 10.0 mi ENE 4.6 mph - N/A   Scattered Clouds
5:59 AM 62.6 °F - 59.0 °F 88% 30.34 in 10.0 mi ENE 4.6 mph - N/A   Mostly Cloudy
6:45 AM 62.6 °F - 59.0 °F 88% 30.33 in 10.0 mi East 3.5 mph - N/A   Partly Cloudy
7:50 AM 64.4 °F - 60.8 °F 88% 30.34 in 10.0 mi Calm Calm - N/A   Mostly Cloudy
8:49 AM 69.8 °F - 64.4 °F 83% 30.34 in 10.0 mi East 6.9 mph - N/A   Mostly Cloudy
9:50 AM 75.2 °F - 66.2 °F 73% 30.35 in 10.0 mi SSE 10.4 mph - N/A   Mostly Cloudy
10:46 AM 78.8 °F - 64.4 °F 61% 30.34 in 10.0 mi South 6.9 mph - N/A   Overcast
11:52 AM 78.8 °F - 64.4 °F 61% 30.33 in 10.0 mi SW 4.6 mph - N/A   Mostly Cloudy
12:45 PM 80.6 °F 82.3 °F 64.4 °F 58% 30.31 in 10.0 mi SSW 9.2 mph - N/A   Overcast
1:50 PM 82.4 °F 83.9 °F 64.4 °F 54% 30.27 in 10.0 mi SW 6.9 mph - N/A   Mostly Cloudy
2:50 PM 82.4 °F 83.9 °F 64.4 °F 54% 30.25 in 10.0 mi SSW 9.2 mph - N/A   Mostly Cloudy
3:50 PM 84.2 °F 85.6 °F 64.4 °F 51% 30.23 in 10.0 mi SSW 10.4 mph 19.6 mph N/A   Mostly Cloudy
4:50 PM 84.2 °F 85.6 °F 64.4 °F 51% 30.22 in 10.0 mi South 11.5 mph 18.4 mph N/A   Scattered Clouds
5:45 PM 82.4 °F 83.9 °F 64.4 °F 54% 30.22 in 10.0 mi South 10.4 mph - N/A   Scattered Clouds
6:50 PM 80.6 °F 82.3 °F 64.4 °F 58% 30.21 in 10.0 mi South 6.9 mph - N/A   Partly Cloudy
7:50 PM 78.8 °F - 66.2 °F 65% 30.21 in 10.0 mi South 4.6 mph - N/A   Clear
8:50 PM 77.0 °F - 69.8 °F 78% 30.23 in 10.0 mi South 4.6 mph - N/A   Overcast
9:45 PM 77.0 °F - 69.8 °F 78% 30.23 in 10.0 mi SSE 5.8 mph - N/A   Overcast
10:20 PM 77.0 °F - 70.7 °F 81% 30.23 in 10.0 mi South 5.8 mph - N/A   Overcast
10:40 PM 77.0 °F - 70.7 °F 81% 30.22 in 10.0 mi South 5.8 mph - N/A   Overcast
11:20 PM 76.6 °F - 71.1 °F 83% 30.22 in 10.0 mi South 5.8 mph - N/A   Overcast
11:40 PM 76.8 °F - 71.6 °F 84% 30.22 in 10.0 mi South 4.6 mph - N/A   Overcast